Terminal Aerodrome Forecast
Issued by NWS

Home | Current Version | Previous Version | Text Only | Print | Product List | Glossary On
Versions: 1 2 3 4 5 6 7 8 9 10 11 12 13 14 15 16 17 18 19 20
723
FTUS43 KAPX 091720
TAFMBL
TAF
KMBL 091720Z 0918/1018 34012G18KT 6SM -SHSN OVC018
     FM092100 33013G23KT 2SM -SHSN BLSN OVC012
     FM100300 33014G25KT 1/2SM SHSN BLSN OVC010
     FM101000 33014G25KT 3SM -SHSN BLSN OVC014
      AMD LTD TO CLD VIS AND WIND=

USA.gov is the U.S. government's official web portal to all federal, state and local government web resources and services.